Location: Cambridge (historical)
(38.6883°N, 119.0140°W)
Time: 13:08:29
(UTC+00:00)

Cosmos 614 Rocket - Pass Details

Date: 29 October 2020
Orbit: 734 x 763 km, 74.1° (Epoch: 01 December)

Event Time Altitude Azimuth Distance (km) Brightness Sun altitude
Rises 13:11:29 0° 209° (SSW) 3,189 7.0 -14.0°
Reaches altitude 10° 13:13:54 10° 214° (SW) 2,264 6.2 -13.5°
Maximum altitude 13:18:54 53° 291° (WNW) 911 4.0 -12.5°
Drops below altitude 10° 13:23:54 10° 9° (N) 2,259 6.5 -11.6°
Sets 13:26:19 0° 14° (NNE) 3,182 7.3 -11.1°
